Theta_e
317 316 317 319 318 317 318 319 320 319 321 320 319 318 318 317 315 313 312 313 315 317 318 319 321 324 325 325 325 324 324 324 324 325 325 325 325 325 325 324 324 325 324 323
318 318 317 318 318 318 317 318 319 319 319 318 318 317 316 315 315 314 313 312 313 317 318 319 319 320 321 323 325 325 325 325 325 325 325 326 325 325 323 323 324 322 322 320
321 320 317 319 318 318 318 319 320 321 319 319 319 317 316 316 313 314 314 312 311 316 319 321 323 323 321 321 322 326 326 325 325 326 325 323 324 324 321 319 320 319 318 317
321 317 324 320 316 317 317 317 316 318 318 317 316 315 315 313 314 314 312 312 310 310 318 321 325 327 325 324 324 325 325 324 323 323 322 319 319 317 315 315 317 315 312 311
322 322 319 320 316 317 317 318 316 316 316 314 313 313 311 312 311 312 312 311 309 311 320 323 326 327 326 324 325 325 323 322 320 320 316 315 313 311 312 312 309 309 308 306
317 320 322 317 315 315 316 319 315 315 315 315 313 317 314 311 311 311 309 310 316 320 323 323 322 324 323 319 319 318 317 316 316 315 314 311 311 311 311 310 309 306 304 303
319 320 316 316 316 318 322 319 316 315 316 315 316 318 316 311 311 315 315 318 320 321 321 321 320 321 316 314 314 315 316 316 314 313 313 313 310 307 304 303 301 299 298 297
317 319 318 315 316 322 317 315 317 317 317 316 314 313 313 313 312 315 316 317 319 317 316 317 318 317 311 311 312 313 312 310 308 308 308 306 305 301 300 299 297 295 294 292
313 315 316 313 315 315 316 317 317 317 317 315 315 315 312 312 313 314 315 314 316 314 311 313 314 315 310 308 309 307 306 305 304 304 303 303 302 299 297 297 293 289 288 286
313 311 313 311 311 312 313 316 317 317 317 315 314 313 313 312 313 313 311 311 312 311 310 308 311 311 311 307 307 306 303 302 301 301 299 299 299 298 297 294 291 288 285 283
312 311 312 312 312 313 314 315 315 317 316 316 314 315 314 314 312 311 311 310 311 310 307 304 306 307 306 306 306 302 300 298 297 297 297 294 293 293 293 292 294 290 287 285
311 313 312 314 313 312 311 312 314 314 316 314 314 315 315 313 310 309 308 308 306 305 303 302 303 303 303 304 304 300 294 293 292 291 289 287 286 284 286 289 290 290 288 287
310 307 308 311 310 308 311 311 309 307 304 306 306 308 313 309 306 305 304 301 296 294 294 294 294 294 295 297 298 295 291 289 287 286 285 284 283 282 281 281 281 281 282 281
304 304 311 309 306 304 305 304 300 298 295 293 295 301 302 303 297 294 292 290 289 288 287 287 287 287 290 292 290 287 286 285 285 284 284 283 283 283 282 282 281 280 281 281
301 302 302 302 300 297 297 297 294 292 291 290 287 287 288 288 287 286 286 285 285 284 285 284 284 284 284 285 286 285 284 284 284 284 284 285 285 284 283 283 282 280 279 278
298 301 301 299 296 294 292 291 290 288 287 286 285 284 284 283 283 283 283 283 284 284 284 283 283 284 284 285 285 285 285 285 284 283 283 283 282 282 281 281 280 280 279 277
299 300 298 298 295 291 290 289 288 287 285 285 284 283 282 282 281 280 280 279 279 279 280 280 280 282 284 284 284 282 282 281 281 280 280 279 279 278 278 278 277 277 276 276
292 291 291 291 290 289 287 286 285 284 283 282 281 280 279 279 279 278 278 278 277 277 278 278 279 280 280 280 280 279 278 278 277 277 277 276 276 276 276 276 275 275 274 274
286 286 286 285 285 284 283 283 282 281 280 280 279 278 278 278 277 277 276 276 276 276 275 276 277 277 277 277 277 277 276 276 275 275 275 275 274 274 274 274 273 273 272 271
284 283 283 283 282 282 282 281 280 280 279 278 278 277 277 276 276 275 274 274 274 274 275 275 275 275 275 275 275 274 274 274 273 273 273 273 272 272 271 271 271 270 270 269
282 282 281 281 281 280 280 279 278 278 278 277 277 277 276 276 275 275 274 273 273 273 274 274 274 273 273 273 273 272 272 272 271 271 271 270 270 269 269 269 269 268 268 267
281 281 280 280 279 279 279 279 278 278 278 277 277 277 275 274 273 273 272 272 272 272 272 272 272 272 271 271 270 270 270 269 269 269 268 268 268 267 267 267 266 266 266 266
281 280 280 279 279 278 277 277 277 276 276 276 275 274 274 274 273 272 272 271 271 271 270 270 269 269 269 269 269 268 268 268 267 267 266 266 265 265 265 265 264 264 265 264
279 279 279 279 278 277 277 276 276 275 275 274 274 273 273 272 271 270 270 270 269 269 268 268 268 267 267 267 267 266 266 266 266 265 265 264 264 263 263 263 263 262 262 261
276 276 276 276 276 277 276 275 274 273 272 272 272 272 271 271 271 270 269 269 268 268 267 267 266 266 266 266 265 265 265 264 264 264 263 263 262 262 261 261 261 260 260 260
274 273 273 273 273 273 273 272 271 271 270 270 270 270 270 270 269 269 268 268 267 266 265 265 264 264 264 264 264 263 263 263 262 262 262 261 261 261 260 260 259 259 259 258
271 272 272 271 270 271 271 270 269 268 269 269 268 268 268 268 267 267 266 266 265 265 264 264 263 263 263 263 263 262 262 262 261 261 261 260 260 259 259 259 259 258 258 257
Wind_Speed
12 10 13 8 7 8 7 10 12 10 10 12 11 10 11 10 6 7 9 8 9 12 13 14 22 29 33 37 37 38 39 40 42 38 37 39 38 40 37 36 37 37 32 31
6 8 8 14 16 20 14 7 8 6 6 7 10 10 6 10 10 9 9 10 12 12 11 12 22 28 32 33 34 34 36 39 36 35 36 37 35 32 33 34 34 32 32 30
4 12 9 10 12 17 8 6 7 8 9 7 5 9 11 13 9 11 13 11 11 13 15 16 24 26 28 31 29 32 32 29 32 32 30 28 32 32 30 32 33 31 27 25
1 6 4 7 6 12 15 14 8 6 6 7 9 8 8 8 10 14 11 10 9 9 13 21 21 22 22 22 26 26 25 25 26 28 27 26 26 27 28 27 27 26 23 23
3 4 8 18 6 4 8 19 13 11 9 7 5 2 7 9 7 12 11 12 10 10 14 22 26 26 21 18 21 22 21 23 25 28 27 27 27 27 26 25 21 21 21 22
3 3 6 5 10 14 6 14 6 9 9 7 6 3 6 10 7 10 9 5 8 16 16 20 21 24 22 20 20 19 21 21 23 25 28 28 27 26 23 22 22 20 20 18
4 3 7 7 10 13 5 13 4 5 5 5 6 9 11 6 8 4 4 6 15 17 16 20 24 25 20 21 18 21 22 22 23 24 25 27 26 24 24 22 24 23 22 18
4 4 8 5 7 4 12 8 4 3 3 5 8 10 7 10 7 6 7 6 13 13 15 22 26 27 20 16 20 22 23 23 22 21 20 20 21 22 23 26 27 25 24 22
7 6 6 4 5 7 19 21 7 3 3 5 6 6 9 8 5 6 7 5 12 14 15 19 23 24 19 21 25 24 22 20 19 18 18 20 23 24 24 26 27 22 22 22
2 7 15 13 12 15 22 21 8 5 5 5 7 8 8 6 3 3 1 4 8 14 10 11 18 19 22 25 25 25 25 23 23 23 22 20 21 22 24 24 23 22 21 21
7 8 11 15 17 20 17 15 10 6 7 5 6 6 5 7 6 4 5 5 10 9 9 11 15 16 20 24 27 25 24 24 24 25 25 23 18 17 19 19 24 28 25 26
3 8 9 10 10 11 8 4 5 5 4 2 5 5 2 6 5 3 5 6 10 13 15 16 17 18 21 25 29 31 27 25 26 27 25 27 30 29 19 13 13 15 17 19
5 8 17 16 3 14 8 9 10 10 11 8 9 7 1 5 5 11 13 15 16 15 18 21 22 20 14 16 22 26 30 28 26 25 23 23 21 23 25 23 20 17 15 13
9 11 6 8 7 13 11 9 11 12 13 14 14 17 12 10 15 14 14 19 21 22 24 24 27 26 19 21 23 25 25 23 25 21 22 23 23 21 20 18 16 15 10 9
10 6 6 4 10 15 12 12 15 14 13 14 19 17 18 16 16 18 22 24 27 27 25 27 30 26 25 26 33 30 28 27 27 27 24 21 18 15 14 13 12 14 13 9
15 5 8 11 10 12 12 14 13 13 13 12 14 17 20 24 26 28 28 26 26 21 25 28 29 26 29 32 34 33 30 27 23 20 18 16 14 14 12 10 9 7 8 9
10 5 8 7 7 9 10 11 12 11 12 13 15 18 21 24 27 27 28 29 31 29 27 30 28 26 26 25 27 26 24 23 21 19 18 15 13 13 11 10 9 8 6 4
7 9 8 8 8 7 10 12 11 15 15 19 20 22 22 22 17 21 23 27 33 36 34 31 29 28 27 25 25 25 25 23 22 20 17 16 14 12 11 9 8 7 5 3
12 10 10 12 11 11 11 12 19 21 20 23 24 22 23 24 23 23 25 29 27 26 25 30 30 30 28 25 25 24 24 22 21 18 16 14 14 12 11 9 7 6 6 6
14 17 17 18 18 18 15 19 22 22 21 24 27 26 24 24 25 27 30 30 26 23 26 28 28 28 26 23 23 22 22 20 19 17 16 15 14 14 13 11 10 8 7 6
13 16 16 17 19 25 25 23 25 23 22 28 25 22 23 23 22 21 24 21 22 25 26 27 26 25 23 21 21 20 19 18 17 16 15 14 14 13 12 10 9 8 7 7
14 14 17 20 22 24 25 25 25 24 25 27 24 23 25 25 26 29 27 23 22 24 25 25 22 20 20 19 20 19 18 17 17 16 15 14 13 12 11 10 9 8 7 6
17 19 21 21 21 23 25 25 26 26 26 25 24 24 23 20 17 17 15 18 22 23 24 22 20 19 18 19 18 17 16 16 16 15 14 13 12 11 11 10 10 9 5 4
20 20 18 18 20 21 19 21 24 25 26 26 26 22 20 21 22 22 23 21 21 22 22 19 19 18 18 18 17 17 16 15 13 12 11 10 10 10 10 9 8 6 7 10
17 18 18 17 16 15 17 17 20 20 22 22 22 22 20 18 20 17 19 18 17 18 18 16 16 15 14 14 13 12 11 10 10 9 9 9 10 10 9 8 9 11 13 15
17 15 16 17 15 14 15 16 17 16 17 19 22 20 20 20 19 18 17 15 15 15 15 14 14 13 12 11 11 11 10 9 9 10 10 10 8 8 9 10 13 15 17 17
16 15 15 18 20 18 18 18 18 17 19 19 18 17 18 17 16 16 15 14 14 14 13 13 12 12 11 9 9 9 9 9 9 9 9 8 8 9 11 15 19 20 19 18
Wind_Direction
286 231 223 246 251 261 229 226 212 223 216 229 236 231 234 236 236 247 219 202 204 202 205 200 202 207 211 216 215 212 212 214 219 219 220 223 222 224 227 226 227 231 223 221
306 276 227 245 243 257 261 234 250 252 249 230 235 232 242 243 246 235 233 214 208 207 201 199 203 206 207 212 212 204 205 210 212 210 211 220 220 216 216 217 220 218 214 212
285 335 323 275 234 239 242 203 187 220 224 235 236 234 237 241 216 227 228 222 207 200 206 206 206 205 204 209 207 201 200 200 200 201 203 205 211 216 212 208 211 206 203 204
303 321 222 268 209 224 229 244 235 240 231 227 233 250 246 234 231 227 218 226 231 196 201 213 209 206 207 203 198 195 196 198 198 200 200 203 206 201 200 200 194 191 191 194
188 198 300 302 310 278 218 251 226 225 238 232 240 69 315 281 224 232 217 219 219 224 189 187 195 201 193 182 180 180 183 189 187 190 182 186 185 183 184 179 179 180 185 183
151 179 236 224 332 313 308 262 257 186 214 247 181 290 273 288 294 259 241 194 181 167 162 173 178 184 175 169 168 166 171 171 173 175 177 174 180 175 174 178 179 176 170 174
212 251 280 264 335 350 283 253 319 319 319 274 233 227 224 272 287 269 237 177 155 152 156 170 175 177 162 165 167 173 179 183 185 185 183 181 175 175 170 164 157 154 148 146
164 197 269 329 354 66 321 304 341 26 304 296 299 291 259 263 263 209 212 149 148 139 152 170 177 171 158 163 177 179 179 180 179 178 176 173 169 159 158 156 152 149 143 134
186 209 212 187 200 251 268 280 277 293 313 321 340 297 289 272 280 265 197 164 159 150 142 164 174 177 155 165 168 166 165 160 158 158 159 163 162 157 153 158 152 138 136 133
104 234 256 250 244 223 246 250 243 220 270 329 338 327 306 291 254 177 272 135 138 137 145 143 172 174 175 165 166 162 154 153 155 152 148 152 155 160 160 157 150 149 143 140
259 282 288 282 272 259 244 240 265 270 174 283 310 312 315 312 270 205 178 163 147 128 115 113 150 155 165 166 164 149 142 143 141 138 137 127 127 145 157 166 179 168 166 165
249 343 315 286 342 323 250 332 296 268 282 173 240 298 38 338 337 35 42 64 82 98 107 111 131 142 157 165 167 154 136 136 139 136 132 127 119 100 103 131 161 168 165 167
290 322 292 281 314 4 1 40 34 46 2 353 347 332 255 94 61 67 78 83 77 74 83 94 98 96 117 146 157 148 136 136 134 131 127 125 120 115 106 87 100 108 120 131
342 348 273 6 346 345 358 24 52 38 32 26 5 24 34 40 71 66 74 78 79 82 75 79 81 78 108 123 119 102 97 100 103 101 107 110 109 109 115 119 118 118 120 127
348 340 307 3 12 8 7 26 41 34 22 29 33 41 48 62 62 60 62 74 80 73 69 73 73 68 85 102 108 101 96 93 101 105 107 111 116 124 130 132 135 141 140 141
315 311 351 37 27 18 13 36 48 38 37 40 49 52 63 72 72 68 63 67 74 70 69 74 73 77 89 94 96 100 106 114 112 109 108 108 110 112 113 112 116 133 166 170
324 356 350 15 41 39 35 42 57 57 62 64 68 73 74 76 73 70 68 68 68 64 63 67 71 87 92 98 101 100 97 95 99 98 94 94 93 90 90 93 93 90 96 117
32 37 25 40 43 44 52 64 68 70 72 74 72 74 76 76 78 74 71 74 71 63 58 66 76 81 83 87 90 88 88 87 87 85 85 83 83 83 79 81 85 90 88 63
51 57 57 62 66 76 69 61 66 68 66 80 77 69 69 69 71 73 75 69 65 64 54 71 76 76 74 79 85 86 85 83 81 78 78 81 81 75 73 70 72 76 81 84
65 67 68 68 65 71 71 66 74 73 74 82 84 81 78 74 75 74 71 66 61 67 75 76 75 76 76 77 79 81 82 81 77 75 77 79 78 76 72 69 65 65 57 44
59 63 66 67 66 66 68 69 73 72 72 74 76 76 76 73 70 72 70 68 56 74 77 75 75 74 76 77 77 77 78 79 80 79 78 77 77 70 64 63 63 50 30 12
62 64 63 65 65 63 63 68 72 74 72 73 75 78 79 73 72 69 67 73 73 76 74 73 74 75 78 78 78 78 78 77 75 72 69 68 66 64 58 46 32 15 359 349
65 66 65 64 67 72 68 66 67 70 70 69 71 72 72 71 72 77 74 67 77 80 79 76 73 69 69 70 71 69 69 70 72 73 70 64 56 44 29 20 12 3 359 348
59 57 63 70 74 73 70 66 70 70 72 71 71 75 84 85 78 81 89 88 85 82 76 69 65 61 61 65 67 68 67 65 60 55 48 41 34 26 21 15 9 4 344 331
59 56 54 58 60 65 72 74 72 68 71 69 69 70 79 91 94 94 91 88 82 77 74 67 62 59 59 61 62 61 60 60 58 50 41 31 24 18 16 8 357 347 338 331
63 62 61 60 62 62 67 71 70 67 74 72 75 82 87 93 96 93 89 86 83 78 71 61 55 52 52 52 53 57 58 53 38 28 15 10 11 8 358 347 340 337 333 326
63 64 64 59 61 75 81 82 79 75 86 91 88 89 94 95 94 91 86 80 72 65 58 51 45 42 38 44 55 53 43 31 20 16 16 8 351 343 340 337 332 328 325 320